Home > Weather > Søgne > Past weeks

Flag for Norway Weather for the Past 2 Weeks in Søgne, Norway

Now
31 °F

Chilly.


Feels Like: 26 °F
Forecast: 17 / 30 °F
Wind: 5 mph from North

Location: Oksoy Fyr

Current Time: Feb 12, 2016 at 8:21:17 PM

Latest Report: Feb 12, 2016 at 7:00 PM


Visibility: N/A

Pressure: 29.55 "Hg

Humidity: 55%

Dew point: 16 °F

Location of SøgneLocation

Historic Weather in Søgne — Graph

°F

Søgne Temperature Yesterday

Maximum temperature yesterday: 37 °F (at 4:00 PM)
Minimum temperature yesterday: 33 °F (at 9:00 PM)
Average temperature yesterday: 35 °F

High & Low Weather Summary for the Past Weeks

 TemperatureHumidityPressure
High48 °F (Feb 1, 5:00 PM)98% (Feb 5, 10:00 PM)29.98 "Hg (Feb 5, 10:00 PM)
Low27 °F (Feb 12, 8:00 AM)47% (Feb 12, 2:00 PM)28.73 "Hg (Feb 8, 10:00 AM)
Average40 °F83%29.35 "Hg
* Reported Jan 28 7:00 PM — Feb 12 7:00 PM, Søgne, Weather by CustomWeather, © 2016

Note: Actual official high and low records may vary slightly from our data, if they occured in-between our weather recording intervals... More about our weather records

Advertising

Søgne Weather History for the Previous 24 Hours

 ConditionsComfort  
Time TempWeatherWind HumidityBarometerVisibility
7:00 PM
Fri, Feb 12
31 °FChilly.5 mph55%29.55 "HgN/A
6:00 PM32 °FChilly.6 mph54%29.56 "HgN/A
5:00 PM33 °FChilly.5 mph47%29.56 "HgN/A
4:00 PM35 °FChilly.2 mph49%29.57 "HgN/A
3:00 PM35 °FChilly.2 mph47%29.58 "HgN/A
2:00 PM34 °FChilly.2 mph47%29.60 "HgN/A
1:00 PM34 °FChilly.5 mph50%29.61 "HgN/A
12:00 PM32 °FChilly.6 mph53%29.63 "HgN/A
11:00 AM31 °FChilly.7 mph63%29.64 "HgN/A
10:00 AM29 °FChilly.7 mph66%29.65 "HgN/A
9:00 AM28 °FChilly.7 mph67%29.65 "HgN/A
8:00 AM27 °FChilly.7 mph69%29.65 "HgN/A
7:00 AM27 °FChilly.8 mph69%29.65 "HgN/A
5:00 AM28 °FChilly.7 mph68%29.66 "HgN/A
4:00 AM29 °FChilly.7 mph67%29.66 "HgN/A
9:00 PM
Thu, Feb 11
33 °FChilly.6 mph69%29.63 "HgN/A
8:00 PM33 °FChilly.3 mph73%29.62 "HgN/A
Weather by CustomWeather, © 2016

See weather overviewHow to use our weather pages